Location: High Cliff State Park
(44.1557°N, 88.2948°W)
Time: 18:48:12
(UTC-05:00)

Amateur Radio Satellites - All Passes

Search period start: 05 May 2016 18:18
Search period end: 06 May 2016 18:18
Location: High Cliff State Park, 44.1557°N, 88.2948°W

Satellite Date Start Highest point End Downlink Frequencies (MHz)
Time Altitude Azimuth
BEESAT 2 05 May 18:22:20 18:26:15 64° 122° (ESE) 18:30:13 435.950
BRITE-PL 05 May 18:27:02 18:31:59 86° 257° (WSW) 18:37:23 437.365/2234.400
LilacSat-2 05 May 18:30:02 18:33:55 74° 258° (WSW) 18:37:47 437.200
NOAA 15 05 May 18:30:45 18:35:51 50° 260° (W) 18:41:01 137.62
MOZHAYETS 4 05 May 18:35:20 18:37:26 13° 300° (WNW) 18:39:33
NOAA 18 05 May 18:38:07 18:43:26 49° 260° (W) 18:48:47 137.9125
Cubesat XI-IV 05 May 18:44:02 18:49:16 57° 259° (W) 18:54:32 437.490
CUBESAT XI-V 05 May 18:49:57 18:54:38 64° 286° (WNW) 18:59:16 437.345
M-CUBED/EXP-1 PRIME 05 May 18:58:09 19:02:52 77° 253° (WSW) 19:07:29 437.505
CUTE 1.7 + AOD 2 05 May 19:00:48 19:03:17 15° 63° (ENE) 19:05:46 437.475
DOVE 4 05 May 19:02:25 19:07:28 57° 72° (ENE) 19:12:42 437.250
RS-15 05 May 19:05:39 19:07:09 10° 90° (E) 19:08:40 29.354- 29.394
AUBIESAT-1 05 May 19:14:08 19:18:44 63° 253° (WSW) 19:23:14 437.475
COMPASS 1 05 May 19:20:13 19:22:10 13° 62° (ENE) 19:24:07 437.405
SEEDS 05 May 19:21:44 19:24:38 19° 65° (ENE) 19:27:32 437.485
GOMX 1 05 May 19:22:34 19:27:34 52° 262° (W) 19:32:52 467.674
Cosmos 2504 05 May 19:22:40 19:28:37 29° 84° (E) 19:34:32 435.465 / 435.565
CINEMA 3 05 May 19:23:10 19:27:35 32° 68° (ENE) 19:31:58 145.822/145.860
Cosmos 2491 05 May 19:37:34 19:44:32 27° 279° (W) 19:51:29 435.465 / 435.565
UWE-3 05 May 19:38:04 19:39:03 11° 59° (ENE) 19:40:02 435.000/436.395/437.385
CUTE-I 05 May 19:40:30 19:44:13 19° 269° (W) 19:47:57 437.470
HO-68 05 May 19:46:21 19:53:26 68° 69° (ENE) 20:00:32 435.675
AAUSAT CUBESAT 2 05 May 19:46:37 19:49:37 20° 66° (ENE) 19:52:37 437.432
STRAND 1 05 May 19:47:16 19:52:08 43° 99° (E) 19:57:00 437.568
YUBILEINY 05 May 19:48:07 19:56:38 56° 284° (WNW) 20:05:12 435.215
BEESAT 3 05 May 19:48:41 19:51:02 15° 322° (NW) 19:53:25 437.485
CUBEBUG 2 05 May 19:49:45 19:53:07 20° 65° (ENE) 19:56:28 437.445
AO-85 05 May 19:55:46 20:00:07 30° 43° (NE) 20:04:07 145.980
ZACube-1 05 May 20:00:32 20:02:17 12° 61° (ENE) 20:04:00 437.345
BEESAT 2 05 May 20:01:46 20:04:30 17° 320° (NW) 20:07:15 435.950
CANX-2 05 May 20:02:17 20:06:30 77° 75° (ENE) 20:10:42 2200.000
BRITE-PL 05 May 20:10:14 20:11:23 11° 276° (W) 20:12:32 437.365/2234.400
AIST 2 05 May 20:20:19 20:24:26 79° 123° (ESE) 20:28:35 435.215
PRISM 05 May 20:24:33 20:27:38 20° 94° (E) 20:30:43 437.425
Oscar 11 05 May 20:33:57 20:37:36 28° 68° (ENE) 20:41:16 145.826/435.025
CUTE 1.7 + AOD 2 05 May 20:34:36 20:38:43 53° 260° (W) 20:42:51 437.475
DELFI C3 05 May 20:34:40 20:36:32 13° 63° (ENE) 20:38:24 145.870
DOVE 4 05 May 20:41:45 20:45:31 20° 270° (W) 20:49:22 437.250
FUNcube-1 05 May 20:49:53 20:53:56 34° 70° (ENE) 20:57:55 145.935
COMPASS 1 05 May 20:53:10 20:57:14 62° 259° (W) 21:01:21 437.405
SEEDS 05 May 20:56:06 21:00:03 41° 262° (W) 21:04:01 437.485
CINEMA 3 05 May 21:00:06 21:04:38 33° 265° (W) 21:09:09 145.822/145.860
RS-15 05 May 21:05:41 21:16:30 56° 113° (ESE) 21:27:55 29.354- 29.394
UWE-3 05 May 21:10:12 21:14:49 86° 74° (ENE) 21:19:22 435.000/436.395/437.385
Cosmos 2504 05 May 21:14:34 21:21:34 52° 284° (WNW) 21:28:35 435.465 / 435.565
AAUSAT CUBESAT 2 05 May 21:21:03 21:24:52 37° 263° (W) 21:28:43 437.432
CUBEBUG 2 05 May 21:24:51 21:29:25 49° 261° (W) 21:33:56 437.445
STRAND 1 05 May 21:26:55 21:31:05 26° 296° (WNW) 21:35:14 437.568
ZACube-1 05 May 21:33:27 21:37:58 80° 258° (WSW) 21:42:25 437.345
HO-68 05 May 21:36:05 21:41:41 24° 268° (W) 21:47:20 435.675
AO-85 05 May 21:36:16 21:40:43 39° 244° (WSW) 21:44:46 145.980
YUBILEINY 05 May 21:52:49 21:55:47 12° 309° (NW) 21:58:47 435.215
PRISM 05 May 21:59:13 22:03:05 37° 290° (WNW) 22:06:57 437.425
AIST 2 05 May 22:00:49 22:03:27 16° 322° (NW) 22:06:05 435.215
PCSat 05 May 22:01:11 22:03:28 12° 31° (NNE) 22:05:44 145.827
VELOX 1 05 May 22:06:36 22:07:30 11° 58° (ENE) 22:08:25 145.980
DELFI C3 05 May 22:07:04 22:10:57 57° 260° (W) 22:14:51 145.870
HUMSAT D 05 May 22:08:02 22:12:11 63° 75° (ENE) 22:16:19 437.325/437.525
TIGRISAT 05 May 22:08:44 22:10:18 12° 89° (E) 22:11:51 435.000
Oscar 11 05 May 22:09:56 22:13:40 28° 264° (W) 22:17:25 145.826/435.025
FUNcube-1 05 May 22:26:34 22:30:13 24° 266° (W) 22:33:51 145.935
ANTELSAT 05 May 22:32:58 22:36:24 23° 94° (E) 22:39:48 437.575/2403.000
AISAT 05 May 22:36:19 22:39:43 22° 64° (ENE) 22:43:09 437.250
50 SAT 05 May 22:40:39 22:43:23 20° 67° (ENE) 22:46:08 437.505
O/OREOS (USA 219) 05 May 22:50:35 22:53:31 17° 51° (NE) 22:56:25 437.305
UWE-3 05 May 22:51:25 22:51:50 10° 272° (W) 22:52:15 435.000/436.395/437.385
CUBEBUG 1 05 May 23:02:49 23:06:50 36° 69° (ENE) 23:10:53 437.445
ESTCUBE 1 05 May 23:07:35 23:11:57 56° 73° (ENE) 23:16:23 437.505/2401.250
RS-15 05 May 23:18:00 23:29:07 53° 318° (NW) 23:40:55 29.354- 29.394
DUCHIFAT 1 05 May 23:20:02 23:22:01 13° 90° (E) 23:24:00 145.980
Cosmos 2499 05 May 23:23:33 23:25:20 11° 74° (ENE) 23:27:08 435.465 / 435.565
DX 1 05 May 23:23:59 23:28:15 55° 72° (ENE) 23:32:33 434.975-435.025
UKube-1 05 May 23:24:15 23:28:22 45° 71° (ENE) 23:32:32 .
QB50P2 05 May 23:24:31 23:27:21 17° 92° (E) 23:30:10 145.880/145.840
POLYITAN 1 05 May 23:26:42 23:29:34 17° 92° (E) 23:32:24 437.675
UNISAT 6 05 May 23:26:48 23:31:09 88° 101° (E) 23:35:25 437.425
POPSAT HIP 1 05 May 23:28:20 23:31:14 18° 92° (E) 23:34:06 437.405
QB50P1 05 May 23:31:05 23:34:09 19° 93° (E) 23:37:13 145.935-145.965
GONETS M04 05 May 23:37:25 23:45:15 37° 85° (E) 23:53:04
VELOX 1 05 May 23:38:47 23:43:13 87° 82° (E) 23:47:43 145.980
PCSat 05 May 23:42:54 23:48:13 50° 53° (NE) 23:53:28 145.827
TIGRISAT 05 May 23:43:12 23:47:29 66° 286° (WNW) 23:51:41 435.000
HUMSAT D 05 May 23:46:37 23:48:14 12° 271° (W) 23:49:49 437.325/437.525
BUGSAT 1 05 May 23:47:45 23:49:36 13° 90° (E) 23:51:24 437.445
SPROUT 05 May 23:47:48 23:51:52 41° 70° (ENE) 23:55:55 437.525
CUSAT 1 06 May 00:01:54 00:06:38 18° 61° (ENE) 00:11:35 437.405
NANOSAT C BR1 06 May 00:03:16 00:07:17 40° 98° (E) 00:11:14 145.865
ANTELSAT 06 May 00:09:19 00:13:12 33° 291° (WNW) 00:17:01 437.575/2403.000
TISAT 1 06 May 00:09:51 00:13:11 23° 66° (ENE) 00:16:31 437.305
AISAT 06 May 00:11:45 00:15:57 40° 262° (W) 00:20:11 437.250
AIST 1 06 May 00:11:50 00:16:06 64° 95° (E) 00:20:26
50 SAT 06 May 00:13:52 00:17:02 27° 263° (W) 00:20:12 437.505
O/OREOS (USA 219) 06 May 00:28:54 00:33:23 64° 249° (WSW) 00:37:48 437.305
CUBEBUG 1 06 May 00:39:43 00:43:12 23° 266° (W) 00:46:45 437.445
ESTCUBE 1 06 May 00:46:32 00:49:08 15° 270° (W) 00:51:44 437.505/2401.250
BEESAT 06 May 00:48:20 00:50:41 14° 59° (ENE) 00:53:01 436.000
BEESAT 3 06 May 00:48:49 00:50:27 12° 35° (NE) 00:52:04 437.485
DUCHIFAT 1 06 May 00:53:57 00:58:06 58° 287° (WNW) 01:02:13 145.980
QB50P2 06 May 00:59:21 01:03:24 44° 289° (WNW) 01:07:24 145.880/145.840
POLYITAN 1 06 May 01:01:34 01:05:36 43° 289° (WNW) 01:09:34 437.675
UKube-1 06 May 01:01:43 01:04:39 18° 267° (W) 01:07:36 .
DX 1 06 May 01:02:16 01:04:47 15° 269° (W) 01:07:18 434.975-435.025
POPSAT HIP 1 06 May 01:03:13 01:07:14 42° 289° (WNW) 01:11:12 437.405
BEESAT 2 06 May 01:03:14 01:04:21 11° 33° (NNE) 01:05:29 435.950
QB50P1 06 May 01:06:09 01:10:06 39° 290° (WNW) 01:14:02 145.935-145.965
UNISAT 6 06 May 01:06:31 01:07:09 10° 302° (WNW) 01:07:48 437.425
Cosmos 2499 06 May 01:09:58 01:16:58 72° 94° (E) 01:24:06 435.465 / 435.565
Oscar 19 06 May 01:14:28 01:17:52 17° 91° (E) 01:21:14 437.125/150
DANDE 06 May 01:14:36 01:20:22 28° 69° (ENE) 01:27:00 436.750
BUGSAT 1 06 May 01:21:14 01:25:23 59° 286° (WNW) 01:29:26 437.445
JAS-2 06 May 01:24:00 01:31:31 47° 97° (E) 01:38:54 435.910
SPROUT 06 May 01:24:51 01:27:59 19° 268° (W) 01:31:08 437.525
PCSat 06 May 01:26:52 01:31:18 26° 252° (WSW) 01:35:43 145.827
GONETS M04 06 May 01:33:11 01:41:46 53° 285° (WNW) 01:50:22
RS-15 06 May 01:35:27 01:45:15 29° 351° (N) 01:55:24 29.354- 29.394
Gurwin Techsat 1B 06 May 01:38:14 01:40:02 12° 87° (E) 01:41:49 435.225
NANOSAT C BR1 06 May 01:39:41 01:42:44 20° 295° (WNW) 01:45:46 145.865
CUSAT 1 06 May 01:42:20 01:49:48 74° 78° (ENE) 01:57:54 437.405
ITUPSAT 1 06 May 01:43:08 01:47:35 42° 69° (ENE) 01:52:05 437.325
TISAT 1 06 May 01:44:45 01:48:39 35° 263° (W) 01:52:35 437.305
SWISSCUBE 06 May 01:50:26 01:55:03 55° 72° (ENE) 01:59:42 437.505
AIST 1 06 May 01:52:15 01:54:12 13° 294° (WNW) 01:56:10
BEESAT 06 May 02:23:04 02:27:49 79° 255° (WSW) 02:32:37 436.000
BEESAT 3 06 May 02:24:54 02:28:52 74° 55° (NE) 02:32:48 437.485
MOZHAYETS 4 06 May 02:26:36 02:27:30 11° 58° (ENE) 02:28:26
BEESAT 2 06 May 02:39:04 02:43:02 62° 53° (NE) 02:46:58 435.950
ITAMSAT 1 06 May 02:40:35 02:44:09 18° 91° (E) 02:47:42 435.822/435.867
Oscar 19 06 May 02:52:29 02:57:38 63° 288° (WNW) 03:02:44 437.125/150
DANDE 06 May 02:56:42 03:03:32 68° 263° (W) 03:11:40 436.750
AO-7 06 May 03:02:44 03:07:12 15° 87° (E) 03:11:38 29.400- 29.500
AIST 2 06 May 03:03:08 03:05:19 14° 35° (NE) 03:07:28 435.215
Cosmos 2499 06 May 03:05:42 03:10:53 21° 296° (WNW) 03:16:10 435.465 / 435.565
JAS-2 06 May 03:09:08 03:16:23 43° 295° (WNW) 03:23:36 435.910
Gurwin Techsat 1B 06 May 03:15:22 03:20:44 89° 107° (ESE) 03:26:03 435.225
ITUPSAT 1 06 May 03:21:52 03:25:35 23° 266° (W) 03:29:21 437.325
CUSAT 1 06 May 03:25:27 03:31:24 26° 274° (W) 03:37:41 437.405
SWISSCUBE 06 May 03:30:06 03:33:11 17° 268° (W) 03:36:18 437.505
KKS-1 06 May 03:30:10 03:34:36 68° 74° (ENE) 03:39:05 437.445
STARS 06 May 03:37:18 03:41:29 43° 70° (ENE) 03:45:42 437.465
GONETS M04 06 May 03:38:48 03:41:07 11° 310° (NW) 03:43:26
RS-15 06 May 03:51:44 04:02:34 35° 25° (NNE) 04:13:34 29.354- 29.394
MOZHAYETS 4 06 May 03:59:21 04:03:56 85° 76° (ENE) 04:08:30
YUBILEINY 06 May 04:00:46 04:06:25 18° 58° (ENE) 04:12:01 435.215
BEESAT 3 06 May 04:04:59 04:05:59 11° 252° (WSW) 04:06:59 437.485
BEESAT 2 06 May 04:18:27 04:20:23 13° 250° (WSW) 04:22:20 435.950
ITAMSAT 1 06 May 04:18:54 04:24:01 59° 289° (WNW) 04:29:06 435.822/435.867
CUBESAT XI-V 06 May 04:19:05 04:22:08 18° 63° (ENE) 04:25:12 437.345
AIST 2 06 May 04:40:18 04:44:28 81° 55° (NE) 04:48:37 435.215
DANDE 06 May 04:42:27 04:45:33 13° 278° (W) 04:48:50 436.750
HORYU 2 06 May 04:47:42 04:51:02 21° 94° (E) 04:54:21 437.375
Cosmos 2491 06 May 04:51:09 04:55:37 15° 73° (ENE) 05:00:06 435.465 / 435.565
AO-7 06 May 04:52:55 05:01:18 76° 107° (ESE) 05:09:39 29.400- 29.500
Gurwin Techsat 1B 06 May 04:57:09 04:59:56 14° 303° (WNW) 05:02:41 435.225
JAS-2 06 May 04:58:30 04:59:27 10° 315° (NW) 05:00:25 435.910
KKS-1 06 May 05:09:41 05:11:38 13° 270° (W) 05:13:36 437.445
Cosmos 2504 06 May 05:13:23 05:15:55 12° 56° (NE) 05:18:30 435.465 / 435.565
STARS 06 May 05:14:48 05:18:02 20° 267° (W) 05:21:17 437.465
ISS 06 May 05:18:05 05:19:24 12° 131° (SE) 05:20:43 145.825
STRAND 1 06 May 05:30:08 05:31:19 11° 55° (NE) 05:32:31 437.568
CUBESAT XI-V 06 May 05:54:35 05:59:05 55° 260° (W) 06:03:40 437.345
YUBILEINY 06 May 05:56:00 06:04:46 80° 81° (E) 06:13:31 435.215
LilacSat-2 06 May 06:04:31 06:05:19 10° 89° (E) 06:06:05 437.200
RS-15 06 May 06:04:54 06:17:16 81° 54° (NE) 06:29:38 29.354- 29.394
CUTE-I 06 May 06:14:49 06:18:45 21° 92° (E) 06:22:40 437.470
AIST 2 06 May 06:21:28 06:22:18 11° 252° (WSW) 06:23:09 435.215
HORYU 2 06 May 06:23:37 06:27:45 40° 290° (WNW) 06:31:52 437.375
SO-50 06 May 06:28:39 06:33:28 58° 120° (ESE) 06:38:18 436.795
BRITE-PL 06 May 06:30:27 06:35:33 33° 94° (E) 06:40:30 437.365/2234.400
Cosmos 2491 06 May 06:42:03 06:50:50 75° 94° (E) 06:59:40 435.465 / 435.565
NOAA 15 06 May 06:44:05 06:49:20 55° 101° (E) 06:54:31 137.62
AO-7 06 May 06:46:35 06:53:21 29° 307° (NW) 07:00:07 29.400- 29.500
ISS 06 May 06:52:07 06:55:23 87° 146° (SSE) 06:58:40 145.825
NOAA 18 06 May 06:58:19 07:03:45 62° 102° (ESE) 07:09:08 137.9125
Cubesat XI-IV 06 May 06:59:35 07:04:46 51° 100° (E) 07:09:56 437.490
DOVE 4 06 May 07:01:51 07:04:34 14° 87° (E) 07:07:12 437.250
Cosmos 2504 06 May 07:03:26 07:11:01 60° 78° (ENE) 07:19:07 435.465 / 435.565
STRAND 1 06 May 07:04:31 07:09:36 73° 73° (ENE) 07:14:42 437.568
PRISM 06 May 07:15:53 07:18:42 18° 64° (ENE) 07:21:33 437.425
GOMX 1 06 May 07:23:01 07:28:15 47° 98° (E) 07:33:12 467.674
LilacSat-2 06 May 07:36:16 07:40:01 58° 285° (WNW) 07:43:43 437.200
CANX-2 06 May 07:47:48 07:49:24 12° 89° (E) 07:51:00 2200.000
CUTE-I 06 May 07:53:56 07:59:08 55° 290° (WNW) 08:04:19 437.470
YUBILEINY 06 May 07:54:17 08:00:31 23° 281° (WNW) 08:06:47 435.215
BRITE-PL 06 May 08:08:46 08:14:02 39° 292° (WNW) 08:19:10 437.365/2234.400
SO-50 06 May 08:10:14 08:14:18 25° 319° (NW) 08:18:23 436.795
M-CUBED/EXP-1 PRIME 06 May 08:11:30 08:15:20 61° 106° (ESE) 08:18:50 437.505
PHONESAT 2.4 06 May 08:12:51 08:14:19 13° 153° (SSE) 08:15:47 2401.200-2431.200
CUTE 1.7 + AOD 2 06 May 08:18:24 08:21:45 23° 94° (E) 08:25:06 437.475
RS-15 06 May 08:18:25 08:28:36 32° 257° (WSW) 08:38:47 29.354- 29.394
NOAA 15 06 May 08:24:40 08:28:43 22° 298° (WNW) 08:32:45 137.62
AUBIESAT-1 06 May 08:26:45 08:30:35 76° 108° (ESE) 08:34:06 437.475
ISS 06 May 08:29:19 08:32:09 26° 347° (NNW) 08:34:59 145.825
COMPASS 1 06 May 08:35:16 08:38:11 18° 92° (E) 08:41:06 437.405
DOVE 4 06 May 08:37:46 08:42:52 70° 286° (WNW) 08:47:37 437.250
SEEDS 06 May 08:38:30 08:42:06 27° 95° (E) 08:45:42 437.485
NOAA 18 06 May 08:39:58 08:43:56 21° 300° (WNW) 08:47:53 137.9125
Cubesat XI-IV 06 May 08:40:21 08:44:31 24° 298° (WNW) 08:48:41 437.490
Cosmos 2491 06 May 08:41:28 08:48:35 27° 296° (WNW) 08:55:47 435.465 / 435.565
STRAND 1 06 May 08:46:36 08:49:19 14° 271° (W) 08:52:03 437.568
PRISM 06 May 08:49:51 08:53:43 41° 261° (W) 08:57:39 437.425
CINEMA 3 06 May 08:53:12 08:57:43 56° 99° (E) 09:02:00 145.822/145.860
UNISAT 6 06 May 08:53:36 08:55:06 11° 59° (ENE) 08:56:35 437.425
Cosmos 2504 06 May 08:57:36 09:03:55 29° 276° (W) 09:10:36 435.465 / 435.565
HO-68 06 May 08:59:49 09:06:55 62° 103° (ESE) 09:13:59 435.675
UWE-3 06 May 09:00:01 09:02:20 14° 90° (E) 09:04:36 435.000/436.395/437.385
GOMX 1 06 May 09:01:36 09:05:59 26° 296° (WNW) 09:10:12 467.674
AAUSAT CUBESAT 2 06 May 09:01:44 09:05:21 28° 95° (E) 09:08:57 437.432
TIGRISAT 06 May 09:08:28 09:11:06 15° 62° (ENE) 09:13:44 435.000
CUBEBUG 2 06 May 09:14:39 09:18:24 29° 95° (E) 09:22:04 437.445
CANX-2 06 May 09:21:29 09:25:41 64° 285° (WNW) 09:29:52 2200.000
ZACube-1 06 May 09:21:33 09:24:15 16° 91° (E) 09:26:54 437.345
ANTELSAT 06 May 09:32:58 09:36:49 27° 67° (ENE) 09:40:37 437.575/2403.000
DELFI C3 06 May 09:44:15 09:46:46 16° 92° (E) 09:49:18 145.870
GONETS M04 06 May 09:45:45 09:51:49 20° 59° (ENE) 09:57:49
M-CUBED/EXP-1 PRIME 06 May 09:47:41 09:49:20 12° 306° (NW) 09:50:56 437.505
PHONESAT 2.4 06 May 09:47:46 09:50:38 33° 168° (SSE) 09:53:31 2401.200-2431.200
CUTE 1.7 + AOD 2 06 May 09:53:52 09:57:40 33° 290° (WNW) 10:01:27 437.475
Oscar 11 06 May 09:54:54 09:59:02 44° 99° (E) 10:03:09 145.826/435.025
AUBIESAT-1 06 May 10:03:51 10:04:24 10° 307° (NW) 10:04:57 437.475
ISS 06 May 10:06:39 10:09:19 22° 7° (N) 10:12:00 145.825
COMPASS 1 06 May 10:10:01 10:13:56 40° 289° (WNW) 10:17:50 437.405
FUNcube-1 06 May 10:12:12 10:16:18 56° 100° (E) 10:20:22 145.935
DUCHIFAT 1 06 May 10:13:50 10:15:53 13° 61° (ENE) 10:17:56 145.980
SEEDS 06 May 10:14:12 10:17:45 27° 292° (WNW) 10:21:19 437.485
AIST 1 06 May 10:17:56 10:21:10 19° 70° (ENE) 10:24:23
QB50P2 06 May 10:18:54 10:21:43 17° 63° (ENE) 10:24:32 145.880/145.840
DOVE 4 06 May 10:19:12 10:19:30 10° 305° (NW) 10:19:48 437.250
POLYITAN 1 06 May 10:21:04 10:23:55 18° 64° (ENE) 10:26:47 437.675
POPSAT HIP 1 06 May 10:22:34 10:25:26 18° 64° (ENE) 10:28:18 437.405
QB50P1 06 May 10:25:13 10:28:14 19° 64° (ENE) 10:31:16 145.935-145.965
UNISAT 6 06 May 10:26:30 10:31:09 89° 257° (WSW) 10:35:43 437.425
CINEMA 3 06 May 10:31:30 10:34:22 17° 298° (WNW) 10:37:10 145.822/145.860
UWE-3 06 May 10:35:02 10:39:09 51° 288° (WNW) 10:43:11 435.000/436.395/437.385
AAUSAT CUBESAT 2 06 May 10:37:18 10:40:45 26° 292° (WNW) 10:44:13 437.432
BUGSAT 1 06 May 10:39:27 10:41:15 13° 61° (ENE) 10:43:04 437.445
TIGRISAT 06 May 10:42:43 10:47:19 65° 259° (W) 10:51:50 435.000
HO-68 06 May 10:48:14 10:54:11 30° 302° (WNW) 11:00:08 435.675
CUBEBUG 2 06 May 10:51:24 10:54:57 26° 293° (WNW) 10:58:25 437.445
NANOSAT C BR1 06 May 10:56:41 11:00:37 37° 70° (ENE) 11:04:33 145.865
ZACube-1 06 May 10:56:48 11:00:48 44° 288° (WNW) 11:04:43 437.345
Cosmos 2499 06 May 10:58:07 11:04:46 29° 68° (ENE) 11:11:46 435.465 / 435.565
ESTCUBE 1 06 May 11:01:13 11:02:12 11° 88° (E) 11:03:11 437.505/2401.250
ANTELSAT 06 May 11:09:14 11:13:24 33° 263° (W) 11:17:32 437.575/2403.000
DELFI C3 06 May 11:18:04 11:21:51 42° 288° (WNW) 11:25:38 145.870
PHONESAT 2.4 06 May 11:24:12 11:27:11 40° 185° (S) 11:30:10 2401.200-2431.200
HUMSAT D 06 May 11:25:25 11:29:30 83° 287° (WNW) 11:33:35 437.325/437.525
VELOX 1 06 May 11:28:47 11:31:22 15° 91° (E) 11:33:55 145.980
Oscar 11 06 May 11:31:50 11:34:51 19° 296° (WNW) 11:37:51 145.826/435.025
JAS-2 06 May 11:38:58 11:43:53 24° 56° (ENE) 11:49:14 435.910
GONETS M04 06 May 11:41:15 11:50:04 86° 82° (E) 11:58:46
50 SAT 06 May 11:42:05 11:44:53 20° 94° (E) 11:47:41 437.505
ISS 06 May 11:43:02 11:46:16 56° 27° (NNE) 11:49:30 145.825
DUCHIFAT 1 06 May 11:46:49 11:51:03 67° 258° (WSW) 11:55:19 145.980
FUNcube-1 06 May 11:49:50 11:52:06 14° 298° (WNW) 11:54:22 145.935
AO-85 06 May 11:50:16 11:55:33 52° 119° (ESE) 12:00:48 145.980
QB50P2 06 May 11:53:00 11:57:09 49° 260° (W) 12:01:20 145.880/145.840
AIST 1 06 May 11:54:49 11:58:58 40° 268° (W) 12:03:04
POLYITAN 1 06 May 11:55:13 11:59:22 48° 261° (W) 12:03:33 437.675
POPSAT HIP 1 06 May 11:56:43 12:00:52 48° 261° (W) 12:05:02 437.405
QB50P1 06 May 11:59:37 12:03:43 44° 261° (W) 12:07:50 145.935-145.965
AISAT 06 May 12:00:20 12:04:24 33° 97° (E) 12:08:25 437.250
BUGSAT 1 06 May 12:11:49 12:16:03 72° 258° (WSW) 12:20:20 437.445
CUBEBUG 1 06 May 12:25:36 12:30:00 58° 101° (E) 12:34:21 437.445
Oscar 19 06 May 12:32:22 12:36:50 30° 65° (ENE) 12:41:20 437.125/150
NANOSAT C BR1 06 May 12:33:13 12:36:28 21° 267° (W) 12:39:44 145.865
ESTCUBE 1 06 May 12:35:01 12:39:35 81° 283° (WNW) 12:44:08 437.505/2401.250
UKube-1 06 May 12:45:31 12:49:51 68° 102° (ESE) 12:54:10 .
DX 1 06 May 12:46:33 12:50:59 84° 104° (ESE) 12:55:22 434.975-435.025
Cosmos 2499 06 May 12:50:39 12:58:20 64° 267° (W) 13:06:38 435.465 / 435.565
Gurwin Techsat 1B 06 May 12:59:40 13:03:48 24° 62° (ENE) 13:07:57 435.225
PHONESAT 2.4 06 May 13:01:15 13:03:38 20° 202° (SSW) 13:06:01 2401.200-2431.200
VELOX 1 06 May 13:03:48 13:08:12 57° 288° (WNW) 13:12:33 145.980
O/OREOS (USA 219) 06 May 13:06:15 13:08:05 12° 97° (E) 13:09:54 437.305
SPROUT 06 May 13:07:50 13:12:08 65° 102° (ESE) 13:16:21 437.525
50 SAT 06 May 13:15:32 13:18:41 27° 291° (WNW) 13:21:50 437.505
SO-50 06 May 13:19:22 13:22:21 16° 33° (NNE) 13:25:16 436.795
ISS 06 May 13:19:55 13:22:31 22° 224° (SW) 13:25:05 145.825
JAS-2 06 May 13:21:58 13:28:07 72° 259° (WSW) 13:35:11 435.910
TISAT 1 06 May 13:27:03 13:30:48 30° 96° (E) 13:34:31 437.305
AO-85 06 May 13:31:28 13:36:19 31° 317° (NW) 13:41:05 145.980
AISAT 06 May 13:37:02 13:40:45 26° 294° (WNW) 13:44:27 437.250
GONETS M04 06 May 13:39:47 13:45:42 21° 283° (WNW) 13:51:35
SWISSCUBE 06 May 13:51:01 13:52:58 12° 89° (E) 13:54:55 437.505
ITAMSAT 1 06 May 13:59:41 14:04:17 33° 66° (ENE) 14:08:53 435.822/435.867
AO-7 06 May 14:02:54 14:09:38 29° 53° (NE) 14:16:23 29.400- 29.500
CUBEBUG 1 06 May 14:03:08 14:05:50 16° 298° (WNW) 14:08:30 437.445
Oscar 19 06 May 14:11:14 14:16:01 37° 263° (W) 14:20:52 437.125/150
BEESAT 06 May 14:22:13 14:26:01 23° 94° (E) 14:29:48 436.000
UKube-1 06 May 14:23:12 14:25:22 14° 300° (WNW) 14:27:31 .
DX 1 06 May 14:25:05 14:26:30 11° 301° (WNW) 14:27:55 434.975-435.025
PCSat 06 May 14:26:27 14:31:13 32° 110° (ESE) 14:36:00 145.827
Gurwin Techsat 1B 06 May 14:38:16 14:43:24 51° 260° (W) 14:48:36 435.225
O/OREOS (USA 219) 06 May 14:42:15 14:46:50 73° 294° (WNW) 14:51:26 437.305
SPROUT 06 May 14:45:24 14:47:34 14° 299° (WNW) 14:49:43 437.525
Cosmos 2499 06 May 14:47:55 14:49:58 11° 286° (WNW) 14:52:03 435.465 / 435.565
CUSAT 1 06 May 14:48:43 14:52:28 56° 94° (E) 14:57:30 437.405
SO-50 06 May 14:58:54 15:03:40 77° 54° (NE) 15:08:15 436.795
TISAT 1 06 May 15:02:52 15:06:21 25° 293° (WNW) 15:09:49 437.305
JAS-2 06 May 15:12:45 15:14:40 11° 280° (W) 15:16:38 435.910
AO-85 06 May 15:17:53 15:18:29 10° 339° (NNW) 15:19:05 145.980
ITUPSAT 1 06 May 15:19:20 15:24:09 82° 103° (ESE) 15:28:56 437.325
KKS-1 06 May 15:21:51 15:23:23 12° 89° (E) 15:24:55 437.445
SWISSCUBE 06 May 15:26:32 15:31:19 76° 286° (WNW) 15:36:04 437.505
ITAMSAT 1 06 May 15:39:05 15:43:43 33° 263° (W) 15:48:23 435.822/435.867
HORYU 2 06 May 15:47:08 15:50:44 24° 65° (ENE) 15:54:20 437.375
AO-7 06 May 15:53:25 16:01:41 75° 253° (WSW) 16:10:02 29.400- 29.500
MOZHAYETS 4 06 May 15:53:46 15:56:54 18° 91° (E) 16:00:01
BEESAT 06 May 15:59:29 16:03:57 41° 291° (WNW) 16:08:24 436.000
PCSat 06 May 16:09:22 16:14:29 41° 309° (NW) 16:19:39 145.827
DANDE 06 May 16:10:01 16:13:06 42° 287° (WNW) 16:17:05 436.750
O/OREOS (USA 219) 06 May 16:25:54 16:27:06 11° 315° (NW) 16:28:18 437.305
NOAA 15 06 May 16:28:51 16:31:51 16° 58° (ENE) 16:34:53 137.62
CUSAT 1 06 May 16:32:55 16:35:28 15° 303° (WNW) 16:38:23 437.405
SO-50 06 May 16:41:12 16:43:28 14° 252° (WSW) 16:45:42 436.795
Cubesat XI-IV 06 May 16:46:12 16:49:06 15° 57° (ENE) 16:51:59 437.490
NOAA 18 06 May 16:47:35 16:51:37 21° 60° (ENE) 16:55:39 137.9125
Cosmos 2491 06 May 16:50:49 16:59:02 41° 71° (ENE) 17:07:08 435.465 / 435.565
KKS-1 06 May 16:56:00 17:00:28 73° 286° (WNW) 17:04:54 437.445
ITUPSAT 1 06 May 16:59:04 17:01:20 13° 301° (WNW) 17:03:36 437.325
STARS 06 May 17:01:08 17:05:33 68° 102° (ESE) 17:09:54 437.465
YUBILEINY 06 May 17:06:07 17:11:30 18° 76° (ENE) 17:16:52 435.215
SWISSCUBE 06 May 17:07:37 17:08:16 10° 304° (NW) 17:08:56 437.505
HORYU 2 06 May 17:23:01 17:27:07 36° 262° (W) 17:31:14 437.375
M-CUBED/EXP-1 PRIME 06 May 17:26:24 17:28:55 15° 56° (NE) 17:31:25 437.505
MOZHAYETS 4 06 May 17:29:56 17:34:20 49° 288° (WNW) 17:38:45
CUTE-I 06 May 17:37:49 17:42:44 39° 67° (ENE) 17:47:39 437.470
AUBIESAT-1 06 May 17:40:55 17:43:44 16° 57° (ENE) 17:46:30 437.475
BRITE-PL 06 May 17:42:23 17:47:01 39° 68° (ENE) 17:52:01 437.365/2234.400
HO-68 06 May 17:48:04 17:50:26 12° 45° (NE) 17:52:49 435.675
CUBESAT XI-V 06 May 17:49:37 17:53:51 33° 96° (E) 17:58:05 437.345
AO-7 06 May 17:51:33 17:55:49 15° 273° (W) 18:00:08 29.400- 29.500
BEESAT 3 06 May 17:54:07 17:58:04 82° 121° (ESE) 18:02:02 437.485
PCSat 06 May 17:58:02 17:59:26 11° 332° (NNW) 18:00:49 145.827
NOAA 15 06 May 18:05:40 18:10:56 82° 255° (WSW) 18:16:16 137.62
DOVE 4 06 May 18:07:54 18:11:37 20° 62° (ENE) 18:15:24 437.250
BEESAT 2 06 May 18:09:43 18:13:41 70° 122° (ESE) 18:17:40 435.950
